Hourly Data Report for October 04, 2017

All times are specified in Local Standard Time (LST). Add 1 hour to adjust for Daylight Saving Time where and when it is observed.

WINNIPEG THE FORKS
MANITOBA

49°53'18.008" N
97°07'46.007" W
230.00 m
5023262
71579
XWN

Download Data

Hourly Data (October 2017)
Hourly Data Report for October 4, 2017
Temp Definition
°C
Dew Point Temp Definition
°C
Rel Hum Definition
%
Wind Dir Definition
10's deg

Wind Spd Definition
km/h
Visibility Definition
km
Stn Press Definition
kPa
Hmdx Definition


Wind Chill Definition


Weather Definition


TIME
00:00 8.7 1.4 60 27 5   99.23     LegendNANA
01:00 7.7 1.2 64 24 4   99.29     LegendNANA
02:00 7.2 1.2 66 23 6   99.28     LegendNANA
03:00 6.6 1.8 71 24 6   99.32     LegendNANA
04:00 7.4 4.1 80 26 7   99.32     LegendNANA
05:00 7.7 5.7 87 27 6   99.36     LegendNANA
06:00 7.8 5.2 84 24 7   99.36     LegendNANA
07:00 7.6 4.6 82 23 6   99.38     LegendNANA
08:00 7.3 3.5 77 26 11   99.43     LegendNANA
09:00 7.1 3.0 75 25 10   99.41     LegendNANA
10:00 8.7 2.9 67 25 12   99.41     LegendNANA
11:00 10.7 2.5 57 25 10   99.34     LegendNANA
12:00 11.6 1.7 51 24 11   99.29     LegendNANA
13:00 13.0 1.1 44 25 11   99.18     LegendNANA
14:00 13.7 1.0 42 23 14   99.11     LegendNANA
15:00 14.6 0.5 38 24 12   99.08     LegendNANA
16:00 14.8 1.1 39 24 9   99.03     LegendNANA
17:00 13.9 2.0 44 24 9   99.03     LegendNANA
18:00 12.3 2.3 50 23 9   99.04     LegendNANA
19:00 10.8 2.5 56 22 8   99.07     LegendNANA
20:00 10.0 2.2 58 24 6   99.10     LegendNANA
21:00 9.6 2.2 60 24 8   99.08     LegendNANA
22:00 8.7 2.2 64 24 6   99.11     LegendNANA
23:00 7.9 2.1 67 25 9   99.11     LegendNANA

Notes on Data Quality.

Legend

  • E = Estimated
  • M = Missing
  • NA = Not Available
  • ‡ = Partner data that is not subject to review by the National Climate Archives
Date modified: